Regional Weather Roundup
Issued by NWS Northern Indiana

Home | Current Version | Previous Version | Graphics & Text | Print | Product List | Glossary On
Versions: 1 2 3 4 5 6 7 8 9 10 11 12 13 14 15 16 17 18 19 20 21 22 23 24 25 26 27 28 29 30 31 32 33 34 35 36 37 38 39 40 41 42 43 44 45 46 47 48 49 50
000
ASUS43 KIWX 280400
RWRIWX

KIWX WEATHER ROUNDUP
NATIONAL WEATHER SERVICE NORTHERN INDIANA
1200 AM EDT FRI AUG 28 2015

NOTE: "FAIR" INDICATES FEW OR NO CLOUDS BELOW 12,000 FEET WITH NO
SIGNIFICANT WEATHER AND/OR OBSTRUCTIONS TO VISIBILITY.

* THESE STATIONS ARE NOT UNDER NWS QUALITY CONTROL. THEY ALSO MAY NOT
  REPORT WEATHER SUCH AS PRECIPITATION OR FOG.

INZ001>027-280500-
NORTHERN INDIANA

CITY           SKY/WX    TMP DP  RH WIND       PRES   REMARKS
KNOX*          CLEAR     57  55  94 CALM      30.13F
SOUTH BEND     PTCLDY    57  54  89 CALM      30.16S
GOSHEN         CLEAR     59  54  83 E3        30.16S
MONTICELLO*    CLEAR     64  58  83 E3        30.13S
ANGOLA*        CLEAR     55  54  94 E3        30.18S
FORT WAYNE     PTCLDY    59  55  87 E5        30.16S

$$
INZ028>050-280500-
CENTRAL INDIANA

CITY           SKY/WX    TMP DP  RH WIND       PRES   REMARKS
LAFAYETTE      CLEAR     62  57  83 CALM      30.12S
KOKOMO*        CLEAR     57  54  88 E5        30.15S
MUNCIE*        CLEAR     57  55  93 MISG      30.15S
INDIANAPOLIS   PTCLDY    66  57  72 SE9       30.11S

$$
MIZ043>046-050>051-056>058-064>065-071>073-077>080-280500-
SOUTHWEST LOWER MICHIGAN

CITY           SKY/WX    TMP DP  RH WIND       PRES   REMARKS
BATTLE CREEK   CLEAR     58  53  84 CALM      30.17F
BENTON HARBOR  CLEAR     55  53  93 CALM      30.15F
COLDWATER*     CLEAR     54  53  97 SE5       30.17F
HILLSDALE*     CLEAR     55  55 100 E3        30.18F
HOLLAND        CLEAR     56  54  93 CALM      30.17S
GRAND RAPIDS   PTCLDY    56  55  97 NE3       30.17S
KALAMAZOO      CLEAR     58  52  80 CALM      30.17F
STURGIS*       CLEAR     57  55  94 E6        30.17S
THREE RIVERS*  FAIR      56  54  93 CALM      30.17S

$$
OHZ001>008-015>018-024>025-280500-
NORTHWEST OHIO

CITY           SKY/WX    TMP DP  RH WIND       PRES   REMARKS
DEFIANCE       CLEAR     60  54  80 E3        30.17F
FINDLAY        CLEAR     60  55  83 E8        30.17F
TOLEDO EXPRESS CLEAR     55  54  96 CALM      30.17F
TOLEDO METCALF CLEAR     59  53  80 E5        30.19S
LIMA           CLEAR     59  55  87 E8        30.17F

$$
AND FOR LAKE MICHIGAN COASTAL AND OPEN LAKE BUOY OBSERVATIONS

STATION/POSITION TEMP    WIND        PRES    VSBY  WAVE
                 AIR SEA DIR/SP/G                  HT/PER
                 (F)     (DEG/KT/KT) (MB)    (MI)  (FT/S)
CALUMET HARBOR    67     100/  4/  7   N/A
MICHIGAN CITY     62      60/  8/  9   N/A
BURNS HARBOR      64      80/  9/ 11 1021.0S
SAINT JOSEPH      60      CALM  /  2 1021.0F
SOUTH LAKE BUOY   66 68  140/  8/ 10 1020.6F         0
4 MI NW BRIDGMAN  65 71  120/  8/ 10   N/A           0
MICHIGAN CITY     66 71  110/ 10/ 12   N/A           1

$$
&&


USA.gov is the U.S. government's official web portal to all federal, state and local government web resources and services.